When you browse on this site, cookies collect data to enhance your experience and personalize the content and advertising you see.
Visit our Privacy Policy to learn more. By continuing to use the site, you agree to this use of cookies and data.
  • en Suisse
  • Liste des pays
  • À 7 jours
  • Température de l'eau
  • Carte météo
  • Widgets météo
  • user-avatar
    Se connecter

    Météo par heure à Setif

    Ce jour, 18 Octobre, Vendredi

    Heure Température Précipitation Vent Pression Humidité
    00:00 +18°C° 0 mm 1 m/s 674 mmHg 74%
    01:00 +18°C° 0 mm 1 m/s 674 mmHg 76%
    02:00 +16°C° 0 mm 1 m/s 673 mmHg 78%
    03:00 +16°C° 0 mm 1 m/s 673 mmHg 80%
    04:00 +15°C° 0 mm 1 m/s 673 mmHg 81%
    05:00 +14°C° 0 mm 0 m/s 673 mmHg 83%
    06:00 +14°C° 0 mm 0 m/s 673 mmHg 84%
    07:00 +15°C° 0 mm 0 m/s 674 mmHg 76%
    08:00 +19°C° 0 mm 1 m/s 674 mmHg 69%
    09:00 +21°C° 0 mm 1 m/s 675 mmHg 61%
    10:00 +22°C° 0 mm 1 m/s 675 mmHg 55%
    11:00 +23°C° 0 mm 2 m/s 675 mmHg 50%
    12:00 +24°C° 0 mm 2 m/s 675 mmHg 44%
    13:00 +24°C° 0 mm 3 m/s 675 mmHg 43%
    14:00 +24°C° 0 mm 3 m/s 675 mmHg 42%
    15:00 +24°C° 0 mm 3 m/s 674 mmHg 41%
    16:00 +22°C° 0.1 mm 3 m/s 674 mmHg 47%
    17:00 +21°C° 0.1 mm 2 m/s 674 mmHg 54%
    18:00 +20°C° 0.1 mm 2 m/s 674 mmHg 61%
    19:00 +19°C° 0 mm 2 m/s 674 mmHg 63%
    20:00 +20°C° 0 mm 1 m/s 674 mmHg 65%
    21:00 +20°C° 0 mm 1 m/s 674 mmHg 68%
    22:00 +19°C° 0 mm 1 m/s 673 mmHg 68%
    23:00 +19°C° 0 mm 1 m/s 673 mmHg 69%

    Demain, 19 Octobre, Samedi

    Heure Température Précipitation Vent Pression Humidité
    00:00 +18°C° 0 mm 2 m/s 673 mmHg 69%
    01:00 +17°C° 0 mm 2 m/s 672 mmHg 69%
    02:00 +17°C° 0 mm 2 m/s 672 mmHg 70%
    03:00 +17°C° 0 mm 2 m/s 672 mmHg 70%
    04:00 +17°C° 0 mm 3 m/s 672 mmHg 70%
    05:00 +16°C° 0 mm 3 m/s 671 mmHg 71%
    06:00 +16°C° 0 mm 3 m/s 671 mmHg 71%
    07:00 +18°C° 0 mm 4 m/s 672 mmHg 64%
    08:00 +20°C° 0 mm 5 m/s 673 mmHg 56%
    09:00 +22°C° 0 mm 6 m/s 673 mmHg 48%
    10:00 +23°C° 0 mm 7 m/s 673 mmHg 45%
    11:00 +23°C° 0 mm 8 m/s 673 mmHg 42%
    12:00 +24°C° 0 mm 9 m/s 673 mmHg 39%
    13:00 +24°C° 0 mm 9 m/s 673 mmHg 40%
    14:00 +24°C° 0 mm 9 m/s 672 mmHg 41%
    15:00 +23°C° 0 mm 9 m/s 672 mmHg 42%
    16:00 +22°C° 0 mm 8 m/s 671 mmHg 45%
    17:00 +21°C° 0 mm 6 m/s 671 mmHg 48%
    18:00 +20°C° 0 mm 5 m/s 671 mmHg 52%
    19:00 +20°C° 0 mm 4 m/s 671 mmHg 53%
    20:00 +19°C° 0 mm 4 m/s 672 mmHg 53%
    21:00 +19°C° 0 mm 4 m/s 672 mmHg 54%
    22:00 +19°C° 0 mm 4 m/s 672 mmHg 54%
    23:00 +17°C° 0 mm 5 m/s 671 mmHg 54%

    Après-demain, 20 Octobre, Dimanche

    Heure Température Précipitation Vent Pression Humidité
    00:00 +17°C° 0 mm 5 m/s 671 mmHg 55%
    01:00 +17°C° 0 mm 5 m/s 671 mmHg 55%
    02:00 +17°C° 0 mm 5 m/s 671 mmHg 56%
    03:00 +16°C° 0 mm 5 m/s 671 mmHg 56%
    04:00 +16°C° 0 mm 5 m/s 671 mmHg 56%
    05:00 +17°C° 0 mm 4 m/s 671 mmHg 56%
    06:00 +17°C° 0 mm 4 m/s 671 mmHg 57%
    07:00 +17°C° 0 mm 5 m/s 672 mmHg 51%
    08:00 +20°C° 0 mm 5 m/s 672 mmHg 45%
    09:00 +22°C° 0 mm 6 m/s 673 mmHg 40%
    10:00 +23°C° 0 mm 6 m/s 673 mmHg 38%
    11:00 +23°C° 0 mm 6 m/s 673 mmHg 36%
    12:00 +24°C° 0 mm 6 m/s 673 mmHg 35%
    13:00 +24°C° 0 mm 6 m/s 673 mmHg 35%
    14:00 +25°C° 0 mm 5 m/s 673 mmHg 35%
    15:00 +25°C° 0 mm 5 m/s 673 mmHg 36%
    16:00 +22°C° 0 mm 4 m/s 672 mmHg 39%
    17:00 +21°C° 0 mm 4 m/s 672 mmHg 43%
    18:00 +20°C° 0 mm 3 m/s 672 mmHg 47%
    19:00 +19°C° 0 mm 2 m/s 672 mmHg 49%
    20:00 +19°C° 0 mm 2 m/s 672 mmHg 52%
    21:00 +19°C° 0 mm 1 m/s 673 mmHg 54%
    22:00 +19°C° 0 mm 1 m/s 672 mmHg 56%
    23:00 +18°C° 0 mm 1 m/s 672 mmHg 58%

    21 Octobre, Lundi

    Heure Température Précipitation Vent Pression Humidité
    00:00 +18°C° 0 mm 1 m/s 672 mmHg 60%
    01:00 +18°C° 0 mm 1 m/s 672 mmHg 60%
    02:00 +16°C° 0 mm 1 m/s 671 mmHg 60%
    03:00 +16°C° 0 mm 1 m/s 671 mmHg 60%
    04:00 +16°C° 0 mm 1 m/s 671 mmHg 61%
    05:00 +16°C° 0 mm 1 m/s 671 mmHg 61%
    06:00 +15°C° 0 mm 1 m/s 671 mmHg 61%
    07:00 +18°C° 0 mm 1 m/s 672 mmHg 57%
    08:00 +19°C° 0 mm 2 m/s 673 mmHg 53%
    09:00 +21°C° 0 mm 2 m/s 674 mmHg 49%
    10:00 +21°C° 0.1 mm 2 m/s 674 mmHg 46%
    11:00 +22°C° 0.1 mm 3 m/s 674 mmHg 44%
    12:00 +24°C° 0.1 mm 3 m/s 674 mmHg 42%
    13:00 +24°C° 0.1 mm 3 m/s 673 mmHg 44%
    14:00 +24°C° 0.1 mm 3 m/s 673 mmHg 46%
    15:00 +23°C° 0.1 mm 2 m/s 672 mmHg 48%
    16:00 +21°C° 0.5 mm 2 m/s 672 mmHg 58%
    17:00 +19°C° 0.5 mm 2 m/s 672 mmHg 67%
    18:00 +18°C° 0.5 mm 2 m/s 671 mmHg 76%
    19:00 +18°C° 0.9 mm 2 m/s 671 mmHg 79%
    20:00 +17°C° 0.9 mm 2 m/s 671 mmHg 81%
    21:00 +17°C° 0.9 mm 2 m/s 671 mmHg 84%
    22:00 +17°C° 0.4 mm 2 m/s 671 mmHg 84%
    23:00 +17°C° 0.4 mm 2 m/s 670 mmHg 85%

    22 Octobre, Mardi

    Heure Température Précipitation Vent Pression Humidité
    00:00 +16°C° 0.4 mm 2 m/s 670 mmHg 86%
    01:00 +16°C° 0 mm 2 m/s 670 mmHg 86%
    02:00 +16°C° 0 mm 2 m/s 669 mmHg 86%
    03:00 +16°C° 0 mm 2 m/s 669 mmHg 86%
    04:00 +16°C° 0 mm 2 m/s 669 mmHg 84%
    05:00 +16°C° 0 mm 2 m/s 668 mmHg 82%
    06:00 +16°C° 0 mm 2 m/s 668 mmHg 80%
    07:00 +17°C° 0 mm 2 m/s 669 mmHg 72%
    08:00 +19°C° 0 mm 2 m/s 670 mmHg 63%
    09:00 +21°C° 0 mm 2 m/s 670 mmHg 55%
    10:00 +22°C° 0 mm 3 m/s 670 mmHg 49%
    11:00 +23°C° 0 mm 5 m/s 670 mmHg 43%
    12:00 +26°C° 0 mm 6 m/s 670 mmHg 37%
    13:00 +24°C° 0 mm 6 m/s 670 mmHg 38%
    14:00 +24°C° 0 mm 7 m/s 669 mmHg 38%
    15:00 +24°C° 0 mm 8 m/s 669 mmHg 38%
    16:00 +23°C° 0 mm 7 m/s 668 mmHg 42%
    17:00 +22°C° 0 mm 6 m/s 667 mmHg 47%
    18:00 +21°C° 0 mm 5 m/s 667 mmHg 51%
    19:00 +21°C° 0 mm 6 m/s 666 mmHg 52%
    20:00 +21°C° 0 mm 6 m/s 666 mmHg 52%
    21:00 +20°C° 0 mm 7 m/s 665 mmHg 53%
    22:00 +21°C° 0 mm 8 m/s 665 mmHg 50%
    23:00 +21°C° 0 mm 10 m/s 665 mmHg 47%

    23 Octobre, Mercredi

    Heure Température Précipitation Vent Pression Humidité
    00:00 +21°C° 0 mm 11 m/s 665 mmHg 44%
    01:00 +21°C° 0 mm 11 m/s 664 mmHg 45%
    02:00 +21°C° 0 mm 11 m/s 664 mmHg 45%
    03:00 +21°C° 0 mm 11 m/s 664 mmHg 46%
    04:00 +19°C° 0 mm 10 m/s 664 mmHg 51%
    05:00 +18°C° 0 mm 9 m/s 664 mmHg 57%
    06:00 +17°C° 0 mm 8 m/s 664 mmHg 62%
    07:00 +16°C° 0.1 mm 8 m/s 664 mmHg 61%
    08:00 +16°C° 0.1 mm 8 m/s 665 mmHg 60%
    09:00 +16°C° 0.1 mm 9 m/s 665 mmHg 59%
    10:00 +16°C° 0.1 mm 9 m/s 665 mmHg 54%
    11:00 +16°C° 0.1 mm 10 m/s 666 mmHg 49%
    12:00 +16°C° 0.1 mm 10 m/s 666 mmHg 44%
    13:00 +16°C° 0 mm 10 m/s 666 mmHg 43%
    14:00 +15°C° 0 mm 9 m/s 666 mmHg 41%
    15:00 +15°C° 0 mm 9 m/s 666 mmHg 39%
    16:00 +13°C° 0 mm 8 m/s 667 mmHg 43%
    17:00 +12°C° 0 mm 8 m/s 667 mmHg 47%
    18:00 +11°C° 0 mm 7 m/s 667 mmHg 51%
    19:00 +11°C° 0 mm 7 m/s 668 mmHg 53%
    20:00 +10°C° 0 mm 6 m/s 668 mmHg 55%
    21:00 +10°C° 0 mm 5 m/s 668 mmHg 57%
    22:00 +9°C° 0 mm 5 m/s 668 mmHg 58%
    23:00 +9°C° 0 mm 5 m/s 668 mmHg 59%
    Voir plus